{"data":{"norad_id":40362,"epoch":"2026-05-25T04:02:50.457984Z","epoch_age_seconds":63712,"freshness":"FRESH","line1":"1 40362U 14088A   26145.16863956  .00022856  00000+0  46430-3 0  9990","line2":"2 40362  97.0648 145.9347 0006557 118.1111 242.0802 15.46309336634147","mean_motion":15.46309336,"eccentricity":0.0006557,"inclination_deg":97.0648,"raan_deg":145.9347,"arg_perigee_deg":118.1111,"mean_anomaly_deg":242.0802,"bstar":0.0004643,"rev_number":63414,"period_min":93.124963193005,"perigee_km":423.07108421212,"apogee_km":431.99604058765,"semimajor_km":6805.6705623999,"source":"CELESTRAK","updated_at":"2026-05-25T13:38:12.787799Z"}}